�N����,����,�~����,�C��,���x,�C��,����,���ϕ���,�ő�u�ԕ���,�ő厞����,���˗�,�I�_���x,�n�����x,�ő啗���N��,DTYPE
"23/07/25","00:10",0.0,26.2,74.6,1009.3,335.2,1.1,2.9,354.2,0.00,21.4,25.6,"00:09:04",1
"23/07/25","00:20",0.0,25.9,75.5,1009.5,344.7,1.1,2.2,324.6,0.00,21.3,25.3,"00:19:44",1
"23/07/25","00:30",0.0,25.7,76.2,1009.5,330.8,1.1,2.5,352.0,0.00,21.2,25.4,"00:24:00",1
"23/07/25","00:40",0.0,25.5,77.2,1009.3,321.7,0.6,1.1,353.7,0.00,21.3,25.4,"00:31:44",1
"23/07/25","00:50",0.0,25.4,78.7,1009.0,345.0,1.0,1.8,350.3,0.00,21.5,25.2,"00:48:08",1
"23/07/25","01:00",0.0,25.0,79.8,1009.5,330.9,1.1,2.6,337.6,0.00,21.3,25.2,"00:51:36",1
"23/07/25","01:10",0.0,25.0,80.1,1009.3,281.5,0.7,1.2,314.5,0.00,21.4,25.3,"01:05:12",1
"23/07/25","01:20",0.0,25.0,80.2,1009.0,302.0,1.0,1.8,332.3,0.00,21.4,25.2,"01:16:40",1
"23/07/25","01:30",0.0,25.0,80.2,1009.0,315.6,0.8,1.6,322.5,0.00,21.4,25.2,"01:21:28",1
"23/07/25","01:40",0.0,25.0,80.2,1009.0,342.2,0.7,1.8,331.5,0.00,21.4,25.2,"01:33:12",1
"23/07/25","01:50",0.0,25.0,80.6,1009.3,356.3,0.8,1.7,337.8,0.00,21.5,25.2,"01:41:44",1
"23/07/25","02:00",0.0,24.6,81.0,1008.8,316.2,0.6,0.9,341.0,0.00,21.2,24.8,"01:53:04",1
"23/07/25","02:10",0.0,24.3,81.9,1009.0,328.0,0.6,1.0,342.7,0.00,21.1,25.0,"02:02:32",1
"23/07/25","02:20",0.0,23.9,82.7,1009.0,274.7,0.5,0.8,262.1,0.00,20.8,25.0,"02:19:28",1
"23/07/25","02:30",0.0,23.9,83.6,1009.0,289.6,0.7,1.0,270.4,0.00,21.0,25.2,"02:24:08",1
"23/07/25","02:40",0.0,23.9,84.1,1009.0,312.1,0.5,1.1,336.6,0.00,21.1,25.0,"02:31:28",1
"23/07/25","02:50",0.0,23.7,84.5,1009.3,316.5,0.7,1.1,320.6,0.00,21.0,24.9,"02:42:16",1
"23/07/25","03:00",0.0,23.6,85.1,1009.3,302.4,0.8,1.2,308.1,0.00,21.0,24.9,"02:59:28",1
"23/07/25","03:10",0.0,23.6,85.4,1009.5,316.8,1.1,2.0,337.1,0.00,21.0,24.7,"03:06:48",1
"23/07/25","03:20",0.0,23.7,85.5,1009.5,291.1,1.1,2.1,324.0,0.00,21.2,24.8,"03:19:28",1
"23/07/25","03:30",0.0,23.7,85.4,1009.7,310.5,1.0,1.8,309.9,0.00,21.1,24.9,"03:25:04",1
"23/07/25","03:40",0.0,23.6,85.6,1009.7,317.8,1.0,1.8,324.8,0.00,21.1,25.1,"03:39:12",1
"23/07/25","03:50",0.0,23.5,85.9,1009.7,280.3,0.7,1.1,272.7,0.00,21.0,24.6,"03:46:48",1
"23/07/25","04:00",0.0,23.6,86.1,1010.2,282.6,0.8,1.4,317.2,0.00,21.2,24.7,"03:52:56",1
"23/07/25","04:10",0.0,23.7,86.1,1010.2,290.9,0.8,1.2,321.8,0.00,21.3,24.7,"04:03:20",1
"23/07/25","04:20",0.0,24.0,85.8,1010.2,315.6,1.0,1.9,332.2,0.00,21.5,24.7,"04:11:20",1
"23/07/25","04:30",0.0,24.1,85.4,1010.2,319.0,1.0,1.7,313.0,0.00,21.5,24.5,"04:29:20",1
"23/07/25","04:40",0.0,24.3,84.9,1010.0,289.5,0.7,1.9,307.6,0.00,21.6,24.6,"04:35:12",1
"23/07/25","04:50",0.0,24.4,84.5,1010.2,268.0,0.3,0.8,266.2,0.00,21.7,24.7,"04:47:28",1
"23/07/25","05:00",0.0,24.5,84.0,1010.2,281.9,0.7,1.2,316.6,0.00,21.7,24.7,"04:58:32",1
"23/07/25","05:10",0.0,24.6,83.7,1010.4,320.0,1.0,1.6,331.2,0.00,21.7,24.4,"05:07:20",1
"23/07/25","05:20",0.0,24.7,83.5,1010.4,306.9,0.6,1.0,327.2,0.00,21.8,24.7,"05:12:08",1
"23/07/25","05:30",0.0,24.8,83.3,1010.4,311.2,0.8,1.4,319.4,0.00,21.8,24.6,"05:28:40",1
"23/07/25","05:40",0.0,24.8,83.1,1010.4,325.1,1.1,2.0,332.4,0.00,21.8,24.5,"05:34:56",1
"23/07/25","05:50",0.0,24.9,82.9,1010.4,316.1,0.6,1.2,340.5,0.00,21.8,24.6,"05:40:24",1
"23/07/25","06:00",0.0,25.0,83.1,1010.9,311.4,0.8,1.2,325.7,0.01,22.0,24.5,"05:57:28",1
"23/07/25","06:10",0.0,25.0,83.4,1010.4,335.6,1.1,1.6,340.7,0.00,22.0,24.7,"06:06:40",1
"23/07/25","06:20",0.0,25.3,83.9,1010.4,324.6,0.7,1.4,338.9,0.03,22.4,24.6,"06:16:48",1
"23/07/25","06:30",0.0,25.9,83.1,1010.4,319.5,0.7,1.7,321.2,0.05,22.9,24.4,"06:23:44",1
"23/07/25","06:40",0.0,26.7,81.2,1010.7,343.2,0.7,1.4,332.5,0.08,23.2,24.5,"06:33:04",1
"23/07/25","06:50",0.0,27.7,78.4,1010.2,357.1,0.6,1.3,351.6,0.11,23.6,24.3,"06:44:24",1
"23/07/25","07:00",0.0,28.6,74.4,1010.0,3.2,0.5,1.1,30.3,0.09,23.6,24.5,"06:51:04",1
"23/07/25","07:10",0.0,29.1,72.7,1009.5,25.7,0.5,1.3,123.0,0.15,23.7,24.5,"07:09:52",1
"23/07/25","07:20",0.0,29.6,68.8,1010.0,68.9,0.6,1.3,122.6,0.14,23.3,24.6,"07:11:36",1
"23/07/25","07:30",0.0,29.7,68.9,1010.2,309.5,0.5,1.0,29.2,0.16,23.4,24.5,"07:20:40",1
"23/07/25","07:40",0.0,30.0,67.8,1010.4,355.4,0.5,1.7,59.9,0.21,23.4,24.5,"07:37:52",1
"23/07/25","07:50",0.0,30.6,65.8,1010.7,64.3,0.5,1.6,349.5,0.17,23.5,24.7,"07:41:04",1
"23/07/25","08:00",0.0,31.0,64.2,1011.2,15.9,0.7,1.7,342.5,0.30,23.5,24.5,"07:59:20",1
"23/07/25","08:10",0.0,31.0,64.4,1011.4,359.0,1.0,2.1,352.1,0.29,23.5,24.9,"08:03:20",1
"23/07/25","08:20",0.0,30.8,64.6,1011.4,36.1,0.7,2.4,28.5,0.18,23.4,24.6,"08:13:28",1
"23/07/25","08:30",0.0,30.6,64.6,1011.4,1.9,0.7,1.7,359.8,0.16,23.2,24.9,"08:24:16",1
"23/07/25","08:40",0.0,30.2,65.2,1011.2,336.2,0.7,2.1,350.2,0.15,23.0,24.7,"08:36:08",1
"23/07/25","08:50",0.0,30.5,66.1,1011.2,322.1,0.5,1.9,351.1,0.18,23.5,24.7,"08:43:52",1
"23/07/25","09:00",0.0,30.6,66.5,1010.9,229.5,0.6,1.2,121.1,0.18,23.7,24.7,"08:57:28",1
"23/07/25","09:10",0.0,30.8,66.1,1011.2,123.3,0.6,1.7,135.7,0.18,23.8,24.8,"09:04:16",1
"23/07/25","09:20",0.0,31.0,65.4,1010.9,83.9,0.6,1.9,21.1,0.16,23.8,24.7,"09:13:04",1
"23/07/25","09:30",0.0,31.1,65.0,1011.2,94.6,0.3,1.0,113.1,0.17,23.8,24.9,"09:20:40",1
"23/07/25","09:40",0.0,31.2,64.9,1011.2,0.0,0.6,2.4,348.5,0.16,23.9,24.8,"09:39:36",1
"23/07/25","09:50",0.0,31.1,64.9,1011.2,78.0,0.6,2.2,23.8,0.14,23.8,25.0,"09:41:04",1
"23/07/25","10:00",0.0,31.2,65.5,1011.6,151.8,0.5,1.6,218.4,0.16,24.0,24.7,"09:54:16",1
"23/07/25","10:10",0.0,31.4,64.4,1011.4,30.9,0.6,1.8,191.4,0.22,23.9,25.0,"10:03:12",1
"23/07/25","10:20",0.0,31.6,64.4,1011.4,11.6,0.5,1.6,11.5,0.16,24.1,25.0,"10:13:04",1
"23/07/25","10:30",0.0,31.1,65.5,1011.4,349.9,0.7,2.4,341.8,0.10,23.9,25.0,"10:28:40",1
"23/07/25","10:40",0.0,30.7,66.9,1011.2,310.8,1.0,2.1,324.0,0.14,23.9,25.2,"10:39:12",1
"23/07/25","10:50",0.0,30.9,67.2,1010.9,322.6,0.8,2.1,344.7,0.20,24.1,25.0,"10:40:48",1
"23/07/25","11:00",0.0,31.4,67.5,1011.2,328.3,1.1,2.2,350.0,0.33,24.7,25.2,"10:51:44",1
"23/07/25","11:10",0.0,31.8,65.4,1011.2,310.0,0.7,2.1,358.1,0.28,24.5,25.1,"11:01:52",1
"23/07/25","11:20",0.0,31.9,64.2,1011.6,356.8,1.0,2.1,349.2,0.25,24.3,25.3,"11:17:28",1
"23/07/25","11:30",0.0,32.4,67.1,1011.2,102.0,0.5,1.3,7.3,0.33,25.5,25.2,"11:28:08",1
"23/07/25","11:40",0.0,33.4,60.9,1011.6,41.9,1.0,2.7,5.9,0.53,24.9,25.2,"11:33:44",1
"23/07/25","11:50",0.0,33.9,61.3,1011.9,5.9,1.0,3.3,348.9,0.59,25.4,25.3,"11:42:32",1
"23/07/25","12:00",0.0,34.0,59.6,1011.6,52.0,1.0,2.4,44.7,0.45,25.1,25.5,"11:50:16",1
"23/07/25","12:10",0.0,34.3,59.3,1011.6,140.3,0.8,2.2,138.7,0.52,25.3,25.7,"12:06:48",1
"23/07/25","12:20",0.0,34.5,56.8,1011.9,178.7,1.1,2.6,188.9,0.55,24.7,25.7,"12:18:32",1
"23/07/25","12:30",0.0,33.6,57.3,1011.9,162.5,0.8,3.6,211.2,0.20,24.0,25.3,"12:25:36",1
"23/07/25","12:40",0.0,33.6,57.5,1011.2,336.3,0.8,1.9,14.1,0.27,24.1,25.8,"12:36:32",1
"23/07/25","12:50",0.0,33.5,58.4,1010.9,311.1,0.6,1.7,10.5,0.18,24.3,25.7,"12:42:24",1
"23/07/25","13:00",0.0,33.7,60.2,1010.7,236.8,1.0,2.5,195.7,0.33,24.9,25.8,"12:59:36",1
"23/07/25","13:10",0.0,34.0,59.0,1010.7,216.6,1.3,3.5,226.7,0.38,24.9,26.0,"13:01:12",1
"23/07/25","13:20",0.0,34.2,57.9,1011.4,202.9,1.6,5.7,228.7,0.48,24.8,25.8,"13:16:16",1
"23/07/25","13:30",0.0,34.5,56.8,1010.9,212.3,2.2,4.5,233.0,0.52,24.7,25.9,"13:21:20",1
"23/07/25","13:40",0.0,35.2,56.8,1011.2,180.3,1.1,3.2,215.2,0.51,25.4,26.2,"13:33:28",1
"23/07/25","13:50",0.0,35.9,54.6,1011.6,157.6,0.8,2.6,1.6,0.43,25.4,26.2,"13:48:08",1
"23/07/25","14:00",0.0,35.9,52.2,1011.6,234.4,0.8,2.8,204.9,0.50,24.6,26.3,"13:57:28",1
"23/07/25","14:10",0.0,36.0,52.4,1011.4,215.3,1.3,3.2,225.8,0.48,24.8,26.2,"14:03:36",1
"23/07/25","14:20",0.0,35.4,54.4,1011.4,229.0,1.8,4.2,232.0,0.46,24.8,26.1,"14:12:48",1
"23/07/25","14:30",0.0,35.4,52.8,1010.9,227.2,1.3,3.2,232.5,0.44,24.3,26.5,"14:28:08",1
"23/07/25","14:40",0.0,35.3,53.5,1010.7,204.5,1.6,3.7,202.5,0.42,24.5,26.5,"14:35:52",1
"23/07/25","14:50",0.0,35.6,52.5,1010.7,141.2,1.0,2.2,203.8,0.36,24.4,26.6,"14:42:08",1
"23/07/25","15:00",0.0,35.4,54.9,1010.7,206.1,1.3,3.3,185.5,0.32,25.0,26.6,"14:56:48",1
"23/07/25","15:10",0.0,35.0,54.6,1010.4,171.1,1.3,3.4,222.0,0.29,24.5,26.5,"15:00:08",1
"23/07/25","15:20",0.0,34.2,54.8,1009.7,187.9,2.0,3.9,224.5,0.14,23.8,26.6,"15:17:04",1
"23/07/25","15:30",0.0,34.1,55.6,1009.7,208.5,1.2,3.5,221.5,0.12,24.0,26.8,"15:20:08",1
"23/07/25","15:40",0.0,35.2,54.4,1009.3,133.9,1.0,3.3,228.8,0.30,24.6,26.7,"15:36:00",1
"23/07/25","15:50",0.0,35.4,53.3,1009.5,209.6,1.5,4.3,240.4,0.26,24.5,26.6,"15:43:52",1
"23/07/25","16:00",0.0,35.9,50.3,1009.5,314.5,1.0,3.1,332.8,0.26,24.0,26.7,"15:53:12",1
"23/07/25","16:10",0.0,35.8,51.3,1009.5,247.9,1.3,2.7,247.8,0.24,24.2,26.7,"16:04:32",1
"23/07/25","16:20",0.0,36.1,52.0,1009.5,180.3,1.0,2.0,272.0,0.22,24.7,26.8,"16:10:48",1
"23/07/25","16:30",0.0,35.7,49.7,1009.7,237.5,1.3,3.9,237.4,0.20,23.6,26.7,"16:26:00",1
"23/07/25","16:40",0.0,35.7,50.0,1009.0,277.6,1.0,2.2,239.8,0.17,23.7,26.8,"16:30:56",1
"23/07/25","16:50",0.0,35.8,49.1,1009.3,269.0,1.0,1.8,319.0,0.15,23.5,26.7,"16:41:12",1
"23/07/25","17:00",0.0,35.3,49.7,1009.0,233.0,1.7,3.4,201.2,0.13,23.2,26.6,"16:57:20",1
"23/07/25","17:10",0.0,35.1,50.3,1009.0,251.1,1.1,2.6,222.5,0.11,23.3,26.7,"17:06:24",1
"23/07/25","17:20",0.0,35.2,51.2,1009.3,253.9,0.8,1.9,208.4,0.07,23.6,26.7,"17:12:08",1
"23/07/25","17:30",0.0,34.9,51.7,1009.3,239.1,1.6,3.2,234.0,0.02,23.5,27.0,"17:21:36",1
"23/07/25","17:40",0.0,34.4,54.3,1009.0,237.1,1.1,3.1,235.7,0.02,23.9,26.8,"17:34:56",1
"23/07/25","17:50",0.0,34.5,55.5,1009.5,282.9,0.3,1.3,347.5,0.01,24.3,26.6,"17:46:40",1
"23/07/25","18:00",0.0,34.0,58.9,1009.3,338.6,1.1,2.6,325.7,0.00,24.9,26.7,"17:52:40",1
"23/07/25","18:10",0.0,33.1,61.0,1009.3,345.5,1.0,2.1,347.5,0.00,24.6,26.6,"18:08:48",1
"23/07/25","18:20",0.0,32.4,62.9,1009.3,343.4,1.0,1.9,343.1,0.00,24.5,26.9,"18:12:48",1
"23/07/25","18:30",0.0,32.0,64.4,1008.8,342.6,1.0,1.9,346.1,0.00,24.5,26.7,"18:23:12",1
"23/07/25","18:40",0.0,31.3,66.1,1008.1,347.5,1.0,2.2,348.2,0.00,24.3,26.6,"18:34:00",1
"23/07/25","18:50",0.0,30.8,67.3,1007.8,339.2,0.8,1.6,335.9,0.00,24.1,26.6,"18:43:28",1
"23/07/25","19:00",0.0,30.7,68.2,1008.1,346.2,1.0,2.0,340.5,0.00,24.2,26.6,"18:57:04",1
"23/07/25","19:10",0.0,30.6,68.3,1008.1,317.9,0.8,3.6,309.1,0.00,24.1,26.6,"19:09:20",1
"23/07/25","19:20",0.0,31.4,66.3,1008.3,288.3,1.2,4.0,236.5,0.00,24.4,26.6,"19:19:04",1
"23/07/25","19:30",0.0,31.5,66.1,1008.1,284.7,1.3,3.9,239.3,0.00,24.4,26.6,"19:22:16",1
"23/07/25","19:40",0.0,31.2,67.4,1008.6,322.9,1.7,4.9,345.8,0.00,24.5,26.5,"19:36:08",1
"23/07/25","19:50",0.0,30.8,69.1,1008.1,345.8,1.5,2.9,344.1,0.00,24.5,26.3,"19:43:52",1
"23/07/25","20:00",0.0,30.2,71.2,1008.3,348.3,1.1,2.2,334.6,0.00,24.4,26.5,"19:55:12",1
"23/07/25","20:10",0.0,29.6,72.9,1008.3,342.9,1.2,2.4,350.9,0.00,24.3,26.5,"20:01:20",1
"23/07/25","20:20",0.0,29.3,75.2,1008.6,346.9,1.0,2.0,359.9,0.00,24.5,26.4,"20:19:04",1
"23/07/25","20:30",0.0,29.1,76.6,1009.3,341.4,0.8,2.0,329.3,0.00,24.6,26.3,"20:27:04",1
"23/07/25","20:40",0.0,28.8,77.9,1009.5,267.9,0.6,2.1,318.7,0.00,24.6,26.2,"20:31:44",1
"23/07/25","20:50",0.0,28.7,78.9,1009.5,340.3,0.7,1.9,349.6,0.00,24.7,26.3,"20:49:20",1
"23/07/25","21:00",0.0,28.8,79.6,1009.7,340.7,1.1,2.0,301.5,0.00,25.0,26.3,"20:54:00",1
"23/07/25","21:10",0.0,28.6,79.7,1009.5,356.1,0.6,1.6,347.0,0.00,24.8,26.2,"21:00:40",1
"23/07/25","21:20",0.0,28.4,80.2,1009.7,304.2,0.8,1.7,340.8,0.00,24.7,26.1,"21:13:12",1
"23/07/25","21:30",0.0,28.2,80.3,1009.5,303.4,1.1,2.5,338.1,0.00,24.5,26.1,"21:26:56",1
"23/07/25","21:40",0.0,28.1,80.4,1010.0,325.4,1.5,2.5,323.6,0.00,24.4,26.1,"21:36:32",1
"23/07/25","21:50",0.0,27.8,81.1,1009.7,338.1,2.0,3.2,341.5,0.00,24.3,26.0,"21:46:56",1
"23/07/25","22:00",0.0,27.3,82.2,1009.7,330.6,1.7,2.9,326.9,0.00,24.0,26.0,"21:57:36",1
"23/07/25","22:10",0.0,27.1,83.0,1009.5,323.8,2.0,4.2,340.7,0.00,24.0,26.0,"22:04:00",1
"23/07/25","22:20",0.0,26.9,83.5,1009.3,322.5,2.0,3.7,343.3,0.00,23.9,25.9,"22:16:08",1
"23/07/25","22:30",0.0,26.6,84.1,1009.7,328.3,1.6,3.1,0.4,0.00,23.7,26.1,"22:21:28",1
"23/07/25","22:40",0.0,26.5,84.7,1010.0,330.7,1.5,2.5,351.6,0.00,23.8,26.2,"22:39:36",1
"23/07/25","22:50",0.0,26.3,85.1,1010.0,335.7,1.3,2.5,332.8,0.00,23.6,26.0,"22:48:08",1
"23/07/25","23:00",0.0,26.2,85.5,1010.4,327.6,2.0,3.4,345.4,0.00,23.6,25.9,"22:58:16",1
"23/07/25","23:10",0.0,26.2,85.5,1010.2,311.8,1.8,2.9,322.7,0.00,23.6,25.7,"23:01:44",1
"23/07/25","23:20",0.0,26.2,85.4,1010.2,323.2,1.7,3.5,340.5,0.00,23.6,25.8,"23:16:48",1
"23/07/25","23:30",0.0,26.2,85.2,1010.2,318.0,1.8,3.2,329.6,0.00,23.6,25.7,"23:24:08",1
"23/07/25","23:40",0.0,26.2,85.0,1010.7,323.8,1.8,2.8,339.2,0.00,23.5,25.9,"23:31:44",1
"23/07/25","23:50",0.0,26.1,85.1,1010.2,332.5,2.2,3.3,325.4,0.00,23.4,25.8,"23:48:08",1
"23/07/25","24:00",0.0,26.0,85.4,1010.4,307.2,1.6,2.5,323.2,0.00,23.4,25.9,"23:55:20",1
